Location: Rio Negrinho
(26.2394°S, 49.4999°W)
Time: 13:28:51
(UTC+00:00)

Envisat - Pass Details

Date: 31 July 2021
Orbit: 764 x 766 km, 98.2° (Epoch: 28 September)

Event Time Altitude Azimuth Distance (km) Brightness Sun altitude
Rises 21:16:43 0° 185° (S) 3,255 6.1 -6.2°
Reaches altitude 10° 21:19:23 10° 197° (SSW) 2,322 5.5 -6.8°
Maximum altitude 21:23:31 26° 251° (WSW) 1,499 5.3 -7.7°
Drops below altitude 10° 21:27:39 10° 306° (NW) 2,301 6.8 -8.6°
Sets 21:30:17 0° 319° (NW) 3,220 7.3 -9.1°
